Location: Saint-Hippolyte
(43.6394°N, 4.7559°E)
Time: 16:04:37
(UTC+00:00)

COSMO-SKYMED 1 - Pass Details

Date: 24 October 2020
Orbit: 621 x 623 km, 97.9° (Epoch: 24 November)

Event Time Altitude Azimuth Distance (km) Brightness Sun altitude
Rises 17:07:32 0° 22° (NNE) 2,913 5.7 -5.2°
Reaches altitude 10° 17:09:57 10° 33° (NNE) 2,001 4.8 -5.6°
Maximum altitude 17:13:49 31° 96° (E) 1,102 3.4 -6.3°
Drops below altitude 10° 17:17:40 10° 159° (SSE) 1,985 5.1 -7.0°
Sets 17:20:02 0° 170° (S) 2,886 6.0 -7.4°
